THOR ABLESTAR DEB, 1522

Orbit data source: Space-Track

THOR ABLESTAR DEB, 1522 is space debris in LEO originally from a launch on Fri, 13 Aug 1965 UTC launched from the Air Force Western Test Range (AFWTR). Debris objects in space refer to the collection of defunct objects orbiting the Earth. Examples of debris include non-operational satellites, rocket bodies, and fragments generated from explosions, collisions, or faulty payload assembly.

Loading next visibility...
Identifier
1522, 1965-065L
Orbit
LEO
Country
Flag of USUS
Related business
Manufacturer
Unknown
Mission
Spacecraft
Bus & Motor
Unknown
Mass
Unknown
Launch date (UTC)
1965-08-13 (61 years ago)
Launch vehicle
Unknown
Launch site
Air Force Western Test Range (AFWTR)
Object type
Payload
Rocket body
Debris
Shape & HBR
Unknown shape, 0.4 m
Radar Cross Section
Medium (>0.1 m² and <1 m²)

Expand to show TLE details & history
Last TLE update: 12 hours ago

TLE from 12 hours ago
0 THOR ABLESTAR DEB
1 01522U 65065L   26236.65511149  .00000056  00000-0  93742-4 0  9993
2 01522  90.0629 126.9377 0072589  55.7427 333.1426 13.33862561968928
Epoch: 2026-08-24T15:43Z
TLE epoch observation values (Epoch: 2026-08-24T15:43:21.632Z)
Latitude
28.54813°
Longitude
-81.87018°
Altitude
1,087.229 km
Speed
7.335 km/s
True Right ascension
08h 27m 36s
True Declination
28° 24' 37"
Sunlit
Object was in daylight at epoch
Visualization orbit readout
Latitude
Unknown
Longitude
Unknown
Altitude
Unknown
Speed
Unknown
Apparent Right ascension
Unknown
Apparent Declination
Unknown
Sunlit
N/A
Visualization observer readout
Local Sidereal Time
18:54:36
Azimuth
Unknown
Elevation
Unknown
Doppler factor
Unknown
Orbital elements
Apogee altitude
1,183.798 km
Perigee altitude
1,074.807 km
Semi-major axis
7,507.439 km
Eccentricity
0.00726
Inclination
90.0629°
RAAN
126.9377°
Arg. of periapsis
55.7427°
True anomaly
332.76375°
Mean anomaly
333.1426°
Eccentric anomaly
332.95348°
Mean motion
3.33661 °/min
Orbital period
107.89 mins
BSTAR
0.000093742
Loading maneuver chart data...
Computing Atmospheric mass density...

Documentation

Showing up to 5 results
|